When you browse on this site, cookies collect data to enhance your experience and personalize the content and advertising you see.
Visit our Privacy Policy to learn more. By continuing to use the site, you agree to this use of cookies and data.

Tiempo cada hora Jerez de la Frontera

Hoy, 19 Septiembre, Sábado

Tiempo Temperatura Precipitaciones Viento Presión Humedad
00:00 +21°C° 0.1 mm 4 mps 759 mmHg 81%
01:00 +21°C° 0.1 mm 4 mps 759 mmHg 81%
02:00 +21°C° 0.1 mm 3 mps 759 mmHg 82%
03:00 +21°C° 0.1 mm 3 mps 759 mmHg 82%
04:00 +21°C° 0.2 mm 3 mps 759 mmHg 83%
05:00 +21°C° 0.2 mm 3 mps 759 mmHg 83%
06:00 +21°C° 0.2 mm 3 mps 759 mmHg 84%
07:00 +22°C° 0.4 mm 3 mps 760 mmHg 80%
08:00 +23°C° 0.4 mm 4 mps 760 mmHg 76%
09:00 +25°C° 0.4 mm 4 mps 760 mmHg 71%
10:00 +25°C° 0.2 mm 4 mps 760 mmHg 67%
11:00 +26°C° 0.2 mm 4 mps 760 mmHg 63%
12:00 +27°C° 0.2 mm 4 mps 761 mmHg 59%
13:00 +27°C° 0 mm 4 mps 760 mmHg 59%
14:00 +27°C° 0 mm 4 mps 760 mmHg 59%
15:00 +27°C° 0 mm 4 mps 759 mmHg 59%
16:00 +26°C° 0 mm 4 mps 759 mmHg 62%
17:00 +25°C° 0 mm 4 mps 759 mmHg 66%
18:00 +23°C° 0 mm 4 mps 759 mmHg 69%
19:00 +23°C° 0 mm 4 mps 760 mmHg 73%
20:00 +22°C° 0 mm 3 mps 760 mmHg 77%
21:00 +21°C° 0 mm 3 mps 761 mmHg 81%
22:00 +21°C° 0 mm 2 mps 761 mmHg 82%
23:00 +20°C° 0 mm 2 mps 761 mmHg 84%

Mañana, 20 Septiembre, Domingo

Tiempo Temperatura Precipitaciones Viento Presión Humedad
00:00 +20°C° 0 mm 2 mps 761 mmHg 85%
01:00 +20°C° 0 mm 2 mps 761 mmHg 85%
02:00 +20°C° 0 mm 2 mps 760 mmHg 85%
03:00 +20°C° 0 mm 1 mps 760 mmHg 86%
04:00 +20°C° 0 mm 1 mps 760 mmHg 86%
05:00 +20°C° 0 mm 1 mps 760 mmHg 86%
06:00 +20°C° 0 mm 1 mps 760 mmHg 87%
07:00 +20°C° 0 mm 2 mps 761 mmHg 79%
08:00 +21°C° 0 mm 2 mps 761 mmHg 72%
09:00 +24°C° 0 mm 2 mps 761 mmHg 64%
10:00 +25°C° 0 mm 2 mps 761 mmHg 58%
11:00 +26°C° 0 mm 3 mps 761 mmHg 52%
12:00 +28°C° 0 mm 3 mps 760 mmHg 46%
13:00 +28°C° 0 mm 4 mps 760 mmHg 46%
14:00 +28°C° 0 mm 4 mps 760 mmHg 45%
15:00 +28°C° 0 mm 4 mps 759 mmHg 45%
16:00 +27°C° 0 mm 4 mps 759 mmHg 51%
17:00 +26°C° 0 mm 5 mps 759 mmHg 58%
18:00 +25°C° 0 mm 5 mps 759 mmHg 64%
19:00 +23°C° 0 mm 4 mps 759 mmHg 69%
20:00 +24°C° 0 mm 3 mps 760 mmHg 74%
21:00 +22°C° 0 mm 3 mps 760 mmHg 79%
22:00 +23°C° 0 mm 2 mps 760 mmHg 80%
23:00 +23°C° 0 mm 2 mps 760 mmHg 82%

Pasado mañana, 21 Septiembre, Lunes

Tiempo Temperatura Precipitaciones Viento Presión Humedad
00:00 +21°C° 0 mm 2 mps 760 mmHg 83%
01:00 +21°C° 0 mm 2 mps 760 mmHg 83%
02:00 +22°C° 0 mm 1 mps 759 mmHg 83%
03:00 +22°C° 0 mm 1 mps 759 mmHg 83%
04:00 +21°C° 0 mm 1 mps 759 mmHg 83%
05:00 +21°C° 0 mm 1 mps 759 mmHg 83%
06:00 +21°C° 0 mm 1 mps 759 mmHg 83%
07:00 +23°C° 0 mm 1 mps 759 mmHg 75%
08:00 +24°C° 0 mm 1 mps 759 mmHg 67%
09:00 +26°C° 0 mm 2 mps 760 mmHg 59%
10:00 +27°C° 0 mm 2 mps 759 mmHg 53%
11:00 +29°C° 0 mm 2 mps 759 mmHg 47%
12:00 +30°C° 0 mm 3 mps 759 mmHg 41%
13:00 +30°C° 0 mm 3 mps 759 mmHg 41%
14:00 +30°C° 0 mm 4 mps 758 mmHg 41%
15:00 +32°C° 0 mm 4 mps 758 mmHg 41%
16:00 +29°C° 0 mm 4 mps 758 mmHg 46%
17:00 +28°C° 0 mm 4 mps 758 mmHg 51%
18:00 +26°C° 0 mm 4 mps 757 mmHg 56%
19:00 +26°C° 0 mm 4 mps 758 mmHg 61%
20:00 +25°C° 0 mm 3 mps 758 mmHg 66%
21:00 +24°C° 0 mm 2 mps 758 mmHg 71%
22:00 +24°C° 0 mm 2 mps 758 mmHg 72%
23:00 +24°C° 0 mm 2 mps 758 mmHg 73%

22 Septiembre, Martes

Tiempo Temperatura Precipitaciones Viento Presión Humedad
00:00 +24°C° 0 mm 1 mps 757 mmHg 74%
01:00 +23°C° 0 mm 1 mps 757 mmHg 74%
02:00 +23°C° 0 mm 2 mps 757 mmHg 73%
03:00 +23°C° 0 mm 2 mps 756 mmHg 72%
04:00 +23°C° 0 mm 2 mps 757 mmHg 73%
05:00 +21°C° 0 mm 2 mps 757 mmHg 74%
06:00 +21°C° 0 mm 2 mps 757 mmHg 75%
07:00 +23°C° 0 mm 2 mps 757 mmHg 69%
08:00 +24°C° 0 mm 2 mps 757 mmHg 64%
09:00 +26°C° 0 mm 2 mps 757 mmHg 58%
10:00 +27°C° 0 mm 3 mps 757 mmHg 55%
11:00 +28°C° 0 mm 4 mps 757 mmHg 52%
12:00 +29°C° 0 mm 5 mps 757 mmHg 49%
13:00 +28°C° 0 mm 5 mps 756 mmHg 50%
14:00 +28°C° 0 mm 5 mps 756 mmHg 51%
15:00 +28°C° 0 mm 6 mps 756 mmHg 52%
16:00 +27°C° 0 mm 5 mps 756 mmHg 59%
17:00 +25°C° 0 mm 5 mps 756 mmHg 65%
18:00 +23°C° 0 mm 5 mps 756 mmHg 71%
19:00 +23°C° 0 mm 4 mps 756 mmHg 75%
20:00 +22°C° 0 mm 3 mps 756 mmHg 79%
21:00 +21°C° 0 mm 3 mps 757 mmHg 83%
22:00 +21°C° 0.4 mm 3 mps 757 mmHg 84%
23:00 +21°C° 0.4 mm 3 mps 756 mmHg 85%

23 Septiembre, Miércoles

Tiempo Temperatura Precipitaciones Viento Presión Humedad
00:00 +21°C° 0.4 mm 2 mps 756 mmHg 86%
01:00 +21°C° 0.2 mm 2 mps 756 mmHg 86%
02:00 +20°C° 0.2 mm 2 mps 756 mmHg 87%
03:00 +20°C° 0.2 mm 2 mps 756 mmHg 87%
04:00 +20°C° 0 mm 2 mps 756 mmHg 87%
05:00 +20°C° 0 mm 2 mps 756 mmHg 88%
06:00 +19°C° 0 mm 2 mps 756 mmHg 89%
07:00 +21°C° 0 mm 2 mps 756 mmHg 81%
08:00 +23°C° 0 mm 2 mps 756 mmHg 74%
09:00 +24°C° 0 mm 3 mps 756 mmHg 66%
10:00 +25°C° 0 mm 3 mps 756 mmHg 61%
11:00 +26°C° 0 mm 4 mps 756 mmHg 55%
12:00 +27°C° 0 mm 4 mps 756 mmHg 50%
13:00 +27°C° 0 mm 4 mps 755 mmHg 51%
14:00 +27°C° 0 mm 4 mps 755 mmHg 52%
15:00 +27°C° 0 mm 4 mps 755 mmHg 53%
16:00 +26°C° 0 mm 4 mps 754 mmHg 58%
17:00 +25°C° 0 mm 3 mps 754 mmHg 63%
18:00 +24°C° 0 mm 3 mps 754 mmHg 68%
19:00 +24°C° 0 mm 3 mps 755 mmHg 72%
20:00 +22°C° 0 mm 3 mps 755 mmHg 75%
21:00 +23°C° 0 mm 2 mps 755 mmHg 79%
22:00 +23°C° 0 mm 2 mps 755 mmHg 80%
23:00 +21°C° 0 mm 2 mps 755 mmHg 81%

24 Septiembre, Jueves

Tiempo Temperatura Precipitaciones Viento Presión Humedad
00:00 +21°C° 0 mm 2 mps 755 mmHg 82%
01:00 +21°C° 0 mm 2 mps 755 mmHg 82%
02:00 +20°C° 0 mm 2 mps 755 mmHg 81%
03:00 +20°C° 0 mm 3 mps 754 mmHg 80%
04:00 +19°C° 0 mm 3 mps 755 mmHg 78%
05:00 +19°C° 0 mm 3 mps 755 mmHg 77%
06:00 +19°C° 0 mm 3 mps 755 mmHg 76%
07:00 +20°C° 0 mm 3 mps 755 mmHg 70%
08:00 +21°C° 0 mm 4 mps 755 mmHg 64%
09:00 +22°C° 0 mm 4 mps 756 mmHg 58%
10:00 +23°C° 0 mm 4 mps 756 mmHg 56%
11:00 +25°C° 0 mm 5 mps 756 mmHg 55%
12:00 +26°C° 0 mm 6 mps 756 mmHg 54%
13:00 +26°C° 0 mm 6 mps 755 mmHg 55%
14:00 +26°C° 0 mm 6 mps 755 mmHg 57%
15:00 +26°C° 0 mm 7 mps 755 mmHg 59%
16:00 +24°C° 0 mm 6 mps 755 mmHg 60%
17:00 +23°C° 0 mm 6 mps 755 mmHg 60%
18:00 +22°C° 0 mm 6 mps 756 mmHg 61%
19:00 +22°C° 0 mm 6 mps 756 mmHg 60%
20:00 +21°C° 0 mm 6 mps 757 mmHg 58%
21:00 +21°C° 0 mm 5 mps 758 mmHg 56%
22:00 +20°C° 0 mm 6 mps 758 mmHg 58%
23:00 +20°C° 0 mm 6 mps 759 mmHg 60%
Mostrar más